DELTA 1 DEB, 20051

Orbit data source: Space-Track

DELTA 1 DEB, 20051 is space debris in SSO originally from a launch on Thu, 29 Jul 1976 UTC launched from the Air Force Western Test Range (AFWTR). Debris objects in space refer to the collection of defunct objects orbiting the Earth. Examples of debris include non-operational satellites, rocket bodies, and fragments generated from explosions, collisions, or faulty payload assembly.

Loading next visibility...
Identifier
20051, 1976-077FN
Orbit
SSO
Country
Flag of USUS
Related business
Manufacturer
Unknown
Mission
Spacecraft
Bus & Motor
Unknown
Mass
Unknown
Launch date (UTC)
1976-07-29 (50 years ago)
Launch vehicle
Unknown
Launch site
Air Force Western Test Range (AFWTR)
Object type
Payload
Rocket body
Debris
Shape & HBR
Unknown shape, 0.1 m
Radar Cross Section
Small (<0.1 m²)

Expand to show TLE details & history
Last TLE update: 2 days ago

TLE from 2 days ago
0 DELTA 1 DEB
1 20051U 76077FN  26066.86075339  .00000116  00000-0  15939-2 0  9993
2 20051 102.5412  23.5132 0152639 207.0190 179.0890 12.14736179605552
Epoch: 2026-03-07T20:39Z
TLE epoch observation values (Epoch: 2026-03-07T20:39:29.092Z)
Latitude
25.49613°
Longitude
-97.99499°
Altitude
1,740.29 km
Speed
6.957 km/s
True Right ascension
01h 09m 48s
True Declination
25° 22' 44"
Sunlit
Object was in daylight at epoch
Visualization orbit readout
Latitude
Unknown
Longitude
Unknown
Altitude
Unknown
Speed
Unknown
Apparent Right ascension
Unknown
Apparent Declination
Unknown
Sunlit
N/A
Visualization observer readout
Local Sidereal Time
16:36:20
Azimuth
Unknown
Elevation
Unknown
Doppler factor
Unknown
Orbital elements
Apogee altitude
1,735.169 km
Perigee altitude
1,491.212 km
Semi-major axis
7,991.328 km
Eccentricity
0.01526
Inclination
102.5412°
RAAN
23.5132°
Arg. of periapsis
207.019°
True anomaly
179.11629°
Mean anomaly
179.089°
Eccentric anomaly
179.1027°
Mean motion
3.03819 °/min
Orbital period
118.49 mins
BSTAR
0.0015939
Loading maneuver chart data...
Computing Atmospheric mass density...
Loading historical data...
Loading historical data...
Loading historical data...
Loading historical data...
Loading historical data...
Loading historical data...
Loading historical data...

Documentation

Showing up to 5 results
|